Weather History for Saranac Lake, NY

Change the Weather History Date:

Wednesday, June 18, 2014

  Actual Average Record
Temperature  
Mean Temperature 66 °F 61 °F  
Max Temperature 71 °F 73 °F 89 °F (1957)
Min Temperature 60 °F 48 °F 35 °F (1950)
Cooling Degree Days 1 1  
Month to date cooling degree days 9 17  
Year to date cooling degree days 10 20  
Since 1 June cooling degree days 9 17  
Growing Degree Days 15 (Base 50)    
Moisture  
Dew Point 59 °F    
Average Humidity 82    
Maximum Humidity 97    
Minimum Humidity 66    
Precipitation  
Precipitation 0.08 in 0.13 in 0.68 in (1977)
Month to date precipitation 2.98 2.36  
Year to date precipitation 15.14 14.71  
Sea Level Pressure  
Sea Level Pressure 29.89 in    
Wind  
Wind Speed 6 mph (West)    
Max Wind Speed 14 mph    
Max Gust Speed 27 mph    
Visibility 9 miles    
Events Rain    
T = Trace of Precipitation, MM = Missing Value Source: NWS Daily Summary

Daily Weather History Graph

Daily Weather History Graph

Search for Another Location

Airport:

Trip Planner

Search our weather history database for the weather conditions in past years. The results will help you decide how hot, cold, wet, or windy it might be!

Date:

Astronomy

Jun. 18, 2014 Rise Set
Actual Time 5:12 AM EDT 8:44 PM EDT
Civil Twilight 4:35 AM EDT 9:20 PM EDT
Nautical Twilight 3:46 AM EDT 10:09 PM EDT
Astronomical Twilight 2:44 AM EDT 11:12 PM EDT
Moon No Moon Rise 11:45 AM EDT (6/18)
Length of Visible Light 16h 45m
Length of Day
15h 32m
Waning Gibbous, 63% of the Moon is Illuminated
Jun 18
Waning Gibbous
Jun 19
Last Quarter
Jun 27
New
Jul 5
First Quarter
Jul 12
Full

Hourly Weather History & Observations

Time (EDT) Temp. Dew Point Humidity Pressure Visibility Wind Dir Wind Speed Gust Speed Precip Events Conditions
12:51 AM 64.9 °F 63.0 °F 93% 29.66 in 4.0 mi SW 11.5 mph - 0.03 in Rain Rain
1:14 AM 64.9 °F 63.0 °F 93% 29.69 in 9.0 mi WSW 13.8 mph 21.9 mph 0.01 in Rain Light Rain
1:22 AM 64.9 °F 63.0 °F 93% 29.69 in 9.0 mi WSW 9.2 mph 19.6 mph 0.01 in Rain Light Rain
1:51 AM 64.9 °F 63.0 °F 93% 29.67 in 4.0 mi WSW 11.5 mph 26.5 mph 0.03 in Rain Rain
2:03 AM 64.9 °F 63.0 °F 93% 29.70 in 10.0 mi WSW 11.5 mph 25.3 mph 0.00 in Rain Light Rain
2:51 AM 64.0 °F 63.0 °F 96% 29.68 in 10.0 mi WSW 13.8 mph 21.9 mph 0.00 in   Overcast
3:51 AM 64.0 °F 62.1 °F 93% 29.71 in 4.0 mi West 9.2 mph - 0.03 in Rain Light Rain
5:51 AM 61.0 °F 59.0 °F 93% 29.81 in 6.0 mi NW 8.1 mph 16.1 mph N/A   Overcast
6:51 AM 60.1 °F 57.9 °F 93% 29.83 in 10.0 mi NW 8.1 mph - N/A   Mostly Cloudy
7:21 AM 60.1 °F 57.9 °F 93% 29.86 in 9.0 mi Variable 4.6 mph - N/A   Overcast
8:51 AM 60.1 °F 59.0 °F 96% 29.86 in 3.0 mi Variable 3.5 mph - N/A   Overcast
9:51 AM 62.1 °F 59.0 °F 90% 29.89 in 10.0 mi North - - N/A   Overcast
10:51 AM 62.1 °F 59.0 °F 90% 29.93 in 10.0 mi Variable 5.8 mph - N/A   Overcast
11:06 AM 62.1 °F 57.9 °F 86% 29.95 in 10.0 mi West 8.1 mph - N/A   Overcast
11:51 AM 64.0 °F 57.9 °F 80% 29.94 in 10.0 mi Variable 5.8 mph - N/A   Overcast
12:51 PM 64.9 °F 57.0 °F 75% 29.96 in 10.0 mi West 9.2 mph - N/A   Overcast
1:25 PM 66.0 °F 57.9 °F 75% 29.97 in 10.0 mi Variable 4.6 mph - N/A   Overcast
1:33 PM 66.0 °F 57.9 °F 75% 29.97 in 10.0 mi West 9.2 mph - N/A   Mostly Cloudy
1:51 PM 68.0 °F 59.0 °F 73% 29.96 in 10.0 mi Variable 6.9 mph - N/A   Mostly Cloudy
2:51 PM 69.1 °F 59.0 °F 70% 29.94 in 10.0 mi Variable 4.6 mph - N/A   Overcast
4:51 PM 70.0 °F 55.9 °F 61% 29.93 in 10.0 mi West 9.2 mph - N/A   Scattered Clouds
5:51 PM 70.0 °F 57.0 °F 63% 29.93 in 10.0 mi Variable 6.9 mph 16.1 mph N/A   Mostly Cloudy
6:51 PM 69.1 °F 57.0 °F 65% 29.94 in 10.0 mi West 8.1 mph - N/A   Mostly Cloudy
7:51 PM 66.0 °F 57.9 °F 75% 29.96 in 10.0 mi West 5.8 mph - N/A   Scattered Clouds
8:51 PM 64.9 °F 60.1 °F 84% 29.97 in 10.0 mi WSW 6.9 mph - 0.00 in   Overcast
9:24 PM 64.0 °F 60.1 °F 87% 30.00 in 10.0 mi WSW 4.6 mph - 0.01 in   Overcast
9:32 PM 64.0 °F 60.1 °F 87% 30.00 in 10.0 mi West 3.5 mph - 0.01 in   Overcast
9:51 PM 63.0 °F 60.1 °F 90% 29.99 in 10.0 mi Variable 4.6 mph - 0.01 in   Mostly Cloudy
10:11 PM 63.0 °F 60.1 °F 90% 30.00 in 10.0 mi West 3.5 mph - N/A   Mostly Cloudy
10:46 PM 62.6 °F 59.0 °F 88% 30.02 in 10.0 mi WNW 4.6 mph - N/A   Scattered Clouds
10:51 PM 62.1 °F 59.0 °F 90% 30.01 in 10.0 mi West 4.6 mph - N/A   Partly Cloudy
11:51 PM 62.1 °F 59.0 °F 90% 30.01 in 10.0 mi Variable 4.6 mph - N/A   Overcast